Regional Weather Roundup
Issued by NWS

Home | Current Version | Previous Version | Graphics & Text | Print | Product List | Glossary On
Versions: 1 2 3 4 5 6 7 8 9 10 11 12 13 14 15 16 17 18 19 20 21 22 23 24 25 26 27 28 29 30 31 32 33 34 35 36 37 38 39 40 41 42 43 44 45 46 47 48 49 50
873
ASUS43 KFSD 061902
RWRSD

WEATHER ROUNDUP FOR SOUTH DAKOTA
NATIONAL WEATHER SERVICE SIOUX FALLS SD
100 PM CST SAT FEB 06 2016

NOTE: "FAIR" INDICATES FEW OR NO CLOUDS BELOW 12,000 FEET WITH NO
SIGNIFICANT WEATHER AND/OR OBSTRUCTIONS TO VISIBILITY.


SDZ001>005-009-010-012>017-062000-
NORTHWEST AND NORTH CENTRAL SOUTH DAKOTA

CITY           SKY/WX    TMP DP  RH WIND       PRES   REMARKS
BUFFALO          N/A     49  25  39 W17       29.78F
FAITH            N/A     44  25  47 SW10      29.83F
MOBRIDGE       CLOUDY    51  27  39 SW13      29.78F
$$

SDZ012>016-024>037-041>051-057-063-072>074-062000-
SOUTHWEST AND SOUTH CENTRAL SOUTH DAKOTA

CITY           SKY/WX    TMP DP  RH WIND       PRES   REMARKS
RAPID CTY ARPT CLOUDY    45  28  51 S6        29.89F
PIERRE         CLOUDY    44  25  47 W9        29.88F
CUSTER         CLOUDY    37  18  46 W13G29    29.96F
ELLSWORTH AFB  CLOUDY    47  28  46 S7        29.88F
PHILIP         MOSUNNY   44  28  53 SW17G25   29.91F
PINE RIDGE     CLOUDY    40  24  53 W18       30.00F
WINNER         FAIR      44  28  53 SW14      29.93F
$$

SDZ004>011-016>023-039-040-062000-
NORTHEAST SOUTH DAKOTA

CITY           SKY/WX    TMP DP  RH WIND       PRES   REMARKS
ABERDEEN       CLOUDY    43  28  55 SW17      29.83F
WATERTOWN      MOSUNNY   35  24  64 S16       29.86F WCI  25
BROOKINGS      MOSUNNY   36  25  64 S17       29.91F
SISSETON         N/A     39  26  59 W24G31    29.78F
$$

SDZ017-020-022-023-036>040-048>070-062000-
SOUTHEAST SOUTH DAKOTA

CITY           SKY/WX    TMP DP  RH WIND       PRES   REMARKS
SIOUX FALLS    PTSUNNY   32  23  69 SW13      29.99F WCI  22
HURON          CLOUDY    38  28  67 S12       29.90F
MITCHELL       MOSUNNY   39  29  67 S10       29.96F
YANKTON        MOSUNNY   37  23  56 SW10      30.00F
$$

ABBREVIATIONS USED IN REMARKS
   TC - TEMPERATURE IN CELSIUS
  WCI - WIND CHILL INDEX
   HX - HEAT INDEX
  VSB - VISIBILITY





USA.gov is the U.S. government's official web portal to all federal, state and local government web resources and services.